sat.trackr.live / text

‹ back to catalog

STARLINK-31448

NORAD 59611 · 2024-080L

PAYLOAD ACTIVE UNKNOWN

§ Identity

Operator
Country
US
Launch date
2024-04-28
Launch site
AFETR
Launch vehicle
Mass (kg)
RCS (m²)

Purposes: comms

External: N2YO · Heavens-Above · Gunter

§ Orbital elements

Epoch: 2026-09-21T14:19:14.168064Z

Period
94.27 min
Inclination
43.0029°
Eccentricity
0.0001249
Mean motion
15.27606544 rev/d
Perigee alt
482.1 km
Apogee alt
483.8 km
Semi-major
6,861.1 km
B*
-1.9109e-4
RAAN
8.1115°
Arg perigee
272.5161°
Mean anomaly
87.5548°
Rev number
13,453

§ Raw data

STARLINK-314481 59611U 24080L   26264.59669176 -.00005521  00000+0 -19109-3 0  99922 59611  43.0029   8.1115 0001249 272.5161  87.5548 15.27606544134531

JSON: /api/v1/satellites/59611 · /tle

For live sub-satellite position, see the globe view (requires WebGL).

§ Visibility from observer

Set your observer location to see the next 7 days of passes ≥ 10°. The values pass through the URL so the page stays shareable.

No JS? Fill the form by hand. The geolocation button needs JavaScript.